CSG-2

导读

CSG-2是意大利第二代地中海盆地观测卫星星座的第二颗卫星,由意大利科技部、国防部共同资助,意大利航天局负责运营,是一颗军民两用合成孔径雷达地球观测卫星。它于2022年1月31日由SpaceX猎鹰9号火箭发射入轨,运行在619公里高度的太阳同步轨道,设计寿命7年,可全天候实现高分辨率对地观测,支持地中海区域海事监视、灾害监测与国防侦察任务。

基本信息
目录编号:
51444
目录名称:
CSG-2
国际标识:
2022-008A
轨道中心:
EARTH
卫星名称:
CSG-2
卫星全名:
--
卫星状态:
在轨 (已飞行1684 天)
发射日期:
2022-01-31 UTC
国别 :
意大利 (IT)
星等 :
--
该卫星已列入 空间交会检测服务 Space Conjunction Data Service (SCDS) ,当前飞行风险评估等级: 无高风险
轨道信息
数据来源 国际轨道数据 AOE轨道数据
星历时间 2026-09-11T21:35:12+0800
7小时前
查看轨道信息
2026-09-05T22:00:00+0800
6天前
查看轨道信息
半长轴 7000.68km 7000.667km
偏心率 0.0001423 0.0001366
轨道倾角 97.891° 97.891°
近地点辐角 81.211° 79.209°
升交点赤经 76.931° 71.032°
平近点角 278.926° 57.880°
近地点 621.546km 621.573km
远地点 623.54km 623.487km
周期 97.156分钟 97.156分钟
每日圈数 14.821511 14.821551
详细信息
使用方式:
暂无
2D轨道图
3D轨道图
轨道高度分析图
轨道倾角分析图
轨道综合分析图
查看轨道综合分析图
交会数据列表
事件ID 空间交会对象 最接近时刻(TCA) 交会距离 交会风险概率(CRP) 交会风险指数(CRI) 操作
CDM_260914-005100-982605-144421
CSG-2 (51444)
2026-09-14T
00:51:39+0000
0.704 km
远距离
4.017901E-5 中风险 0.67
CDM_260905-030205-144406-962721
CSG-2 (51444)
2026-09-05T
03:02:39+0000
2.667 km
极远距离
1.132814E-6 低风险 0.36
与全量物体交会距离演化趋势
与全量物体交会风险概率演化趋势